sat.trackr.live / text

‹ back to catalog

UNKNOWN

NORAD 87448

UNKNOWN UNKNOWN UNKNOWN

§ Identity

Operator
Country
Launch date
Launch site
Launch vehicle
Mass (kg)
RCS (m²)

External: N2YO · Heavens-Above

§ Orbital elements

Epoch: 2026-09-16T03:40:00.922944Z

Period
103.50 min
Inclination
100.4328°
Eccentricity
0.0060507
Mean motion
13.91308764 rev/d
Perigee alt
879.9 km
Apogee alt
968.2 km
Semi-major
7,302.2 km
B*
6.8504e-4
RAAN
144.8852°
Arg perigee
205.0452°
Mean anomaly
154.7764°
Rev number
64,780

§ Raw data

UNKNOWN1 87448U          26259.15278846  .00000823  00000+0  68504-3 0  99942 87448 100.4328 144.8852 0060507 205.0452 154.7764 13.91308764647800

JSON: /api/v1/satellites/87448 · /tle

For live sub-satellite position, see the globe view (requires WebGL).

§ Visibility from observer

Set your observer location to see the next 7 days of passes ≥ 10°. The values pass through the URL so the page stays shareable.

No JS? Fill the form by hand. The geolocation button needs JavaScript.